Regional Weather Roundup
Issued by NWS

Home | Current Version | Previous Version | Graphics & Text | Print | Product List | Glossary On
Versions: 1 2 3 4 5 6 7 8 9 10 11 12 13 14 15 16 17 18 19 20 21 22 23 24 25 26 27 28 29 30 31 32 33 34 35 36 37 38 39 40 41 42 43 44 45 46 47 48 49 50
000
ASUS43 KTOP 260408
RWRKS

WEATHER ROUNDUP FOR KANSAS
NATIONAL WEATHER SERVICE GOODLAND KS
1100 PM CDT THU MAY 25 2017

NOTE:  "FAIR" INDICATES FEW OR NO CLOUDS BELOW 12,000 FEET WITH NO
SIGNIFICANT WEATHER AND/OR OBSTRUCTIONS TO VISIBILITY.

KSZ001>006-013>018-027>032-041>047-260500-
NORTHWEST KANSAS

CITY           SKY/WX    TMP DP  RH WIND       PRES   REMARKS
GOODLAND       PTCLDY    57  52  83 E5        29.68R
HAYS           LGT RAIN  64  60  87 NE33G45   29.57F
HILL CITY      CLOUDY    63  57  81 E12       29.62F
RUSSELL        CLOUDY    64  60  87 N10G22    29.69R
$$

KSZ061>065-074>080-084>089-260500-
SOUTHWEST KANSAS

CITY           SKY/WX    TMP DP  RH WIND       PRES   REMARKS
DODGE CITY     CLOUDY    64  56  75 NE31G39   29.59R
ELKHART          N/A     64  43  46 N14         N/A
GARDEN CITY    CLOUDY    63  54  72 NE25G37   29.61R
GREAT BEND     CLOUDY    65  56  72 N24G31    29.66R
LIBERAL        PTCLDY    66  54  65 N31G40    29.58R
PRATT          CLEAR     68  57  67 N17       29.56R
$$

KSZ066>073-081>083-090>101-260500-
SOUTHEAST KANSAS

CITY           SKY/WX    TMP DP  RH WIND       PRES   REMARKS
CHANUTE        CLOUDY    70  59  68 SE10      29.61R
COFFEYVILLE    CLOUDY    73  60  63 SE12      29.59R
HUTCHINSON     CLOUDY    72  60  66 NE9       29.57R
MEDICINE LODGE   N/A     71  59  65 SE8       29.48R
NEWTON         MOCLDY    74  61  63 CALM      29.62R
PARSONS        MOCLDY    72  59  63 SE6       29.61R
WICHITA INTL   PTCLDY    72  62  71 SE13      29.52R
WICHITA JABRA  CLOUDY    71  61  70 SE12      29.53S
WICHITA MCCONL PTCLDY    72  60  66 SE9       29.53R
WINFIELD       PTCLDY    72  61  68 SE8       29.54S
$$

KSZ007>012-019>026-033>040-048>060-102>105-260500-
NORTHEAST KANSAS

CITY           SKY/WX    TMP DP  RH WIND       PRES   REMARKS
CONCORDIA      LGT RAIN  68  60  75 CALM      29.67R
EMPORIA        CLOUDY    67  59  75 E9        29.60R
LAWRENCE       CLOUDY    67  58  72 NE7       29.65R
MANHATTAN      CLOUDY    70  60  70 E3        29.64R
MARYSVILLE     CLOUDY    68  59  73 SE6       29.65R
OLATHE IND     MOCLDY    66  57  72 E6        29.66R
OLATHE EXE     CLOUDY    66  57  72 E7        29.67R
SALINA         LGT RAIN  70  63  78 N6        29.61F
TOPEKA BILLARD PTCLDY    66  59  78 CALM      29.65R
TOPEKA FORBES  CLOUDY    68  58  70 E7        29.64R
$$



USA.gov is the U.S. government's official web portal to all federal, state and local government web resources and services.